| time (UTC) | temp F | wind direction | speed MPH | gust MPH | rain 1hr in | rain 24hr in | rain mn in | humidity % | barometer mb |
| 20260903213114 | 57 | 150 | 2.0 | 11.0 | 0.00 | 0.56 | 0.15 | 89 | 1010.8 |
| 20260903211610 | 57 | 125 | 1.0 | 5.0 | 0.00 | 0.56 | 0.15 | 91 | 1010.7 |
| 20260903210125 | 57 | 120 | 1.0 | 6.0 | 0.00 | 0.56 | 0.15 | 96 | 1010.7 |
| 20260903204606 | 56 | 0 | 0.0 | 3.0 | 0.01 | 0.74 | 0.15 | 97 | 1010.6 |
| 20260903203113 | 55 | 202 | 1.0 | 6.0 | 0.03 | 0.74 | 0.15 | 98 | 1010.8 |
| 20260903201600 | 54 | 100 | 2.0 | 9.0 | 0.05 | 0.74 | 0.15 | 97 | 1011.0 |
| 20260903200104 | 55 | 99 | 2.0 | 7.0 | 0.05 | 0.74 | 0.15 | 95 | 1010.6 |
| 20260903194602 | 55 | 0 | 2.0 | 7.0 | 0.04 | 0.82 | 0.14 | 92 | 1011.0 |
| 20260903193100 | 57 | 228 | 1.0 | 9.0 | 0.02 | 0.80 | 0.12 | 93 | 1010.9 |
| 20260903191603 | 57 | 0 | 0.0 | 3.0 | 0.00 | 0.78 | 0.10 | 93 | 1010.5 |
| 20260903190104 | 57 | 344 | 1.0 | 3.0 | 0.00 | 0.78 | 0.10 | 95 | 1010.4 |
| 20260903184559 | 57 | 0 | 0.0 | 3.0 | 0.00 | 0.88 | 0.10 | 96 | 1010.3 |
| 20260903183106 | 56 | 330 | 0.0 | 3.0 | 0.00 | 0.88 | 0.10 | 97 | 1010.6 |
| 20260903181609 | 56 | 330 | 2.0 | 4.0 | 0.00 | 0.88 | 0.10 | 98 | 1010.5 |
| 20260903180104 | 55 | 360 | 2.0 | 4.0 | 0.00 | 0.88 | 0.10 | 99 | 1010.4 |
| 20260903174601 | 55 | 0 | 0.0 | 0.0 | 0.01 | 0.91 | 0.10 | 99 | 1010.6 |
| 20260903173058 | 54 | 0 | 0.0 | 2.0 | 0.01 | 0.91 | 0.10 | 99 | 1010.7 |
| 20260903171614 | 53 | 0 | 0.0 | 1.0 | 0.01 | 0.91 | 0.10 | 99 | 1010.8 |
| 20260903170059 | 53 | 0 | 0.0 | 0.0 | 0.02 | 0.91 | 0.10 | 99 | 1010.6 |
| 20260903164614 | 52 | 0 | 0.0 | 0.0 | 0.01 | 0.90 | 0.09 | 99 | 1010.5 |
| 20260903163105 | 52 | 0 | 0.0 | 0.0 | 0.01 | 0.90 | 0.09 | 99 | 1010.8 |
| 20260903161602 | 51 | 0 | 0.0 | 1.0 | 0.02 | 0.90 | 0.09 | 98 | 1010.9 |
| 20260903160129 | 51 | 119 | 1.0 | 4.0 | 0.02 | 0.89 | 0.08 | 98 | 1010.9 |
| 20260903154611 | 51 | 113 | 1.0 | 4.0 | 0.02 | 0.89 | 0.08 | 98 | 1010.9 |
| 20260903153108 | 51 | 0 | 0.0 | 0.0 | 0.02 | 0.89 | 0.08 | 98 | 1010.9 |
| 20260903151603 | 51 | 0 | 0.0 | 0.0 | 0.01 | 0.88 | 0.07 | 97 | 1010.8 |
| 20260903150108 | 51 | 0 | 0.0 | 3.0 | 0.00 | 0.87 | 0.06 | 97 | 1010.7 |
| 20260903144606 | 51 | 117 | 2.0 | 7.0 | 0.00 | 0.87 | 0.06 | 96 | 1010.5 |
| 20260903143110 | 51 | 84 | 5.0 | 14.0 | 0.00 | 0.87 | 0.06 | 95 | 1010.4 |
| 20260903141605 | 51 | 122 | 5.0 | 10.0 | 0.00 | 0.87 | 0.06 | 96 | 1010.4 |
| 20260903140109 | 50 | 116 | 2.0 | 6.0 | 0.00 | 0.87 | 0.06 | 98 | 1010.2 |
| 20260903134600 | 50 | 96 | 3.0 | 10.0 | 0.00 | 0.87 | 0.06 | 98 | 1010.0 |
| 20260903133108 | 50 | 107 | 1.0 | 6.0 | 0.00 | 0.87 | 0.06 | 98 | 1010.2 |
| 20260903131604 | 50 | 109 | 2.0 | 8.0 | 0.00 | 0.87 | 0.06 | 99 | 1010.0 |
| 20260903130105 | 49 | 118 | 2.0 | 4.0 | 0.00 | 0.87 | 0.06 | 98 | 1010.1 |
| 20260903124607 | 49 | 100 | 2.0 | 6.0 | 0.00 | 0.87 | 0.06 | 98 | 1010.0 |
| 20260903123102 | 49 | 107 | 2.0 | 7.0 | 0.00 | 0.87 | 0.06 | 98 | 1010.1 |
| 20260903121606 | 49 | 105 | 2.0 | 4.0 | 0.00 | 0.87 | 0.06 | 98 | 1010.2 |
| 20260903120106 | 50 | 132 | 3.0 | 7.0 | 0.00 | 0.87 | 0.06 | 98 | 1010.2 |
| 20260903114605 | 50 | 149 | 3.0 | 11.0 | 0.00 | 0.87 | 0.06 | 98 | 1010.3 |
| 20260903113057 | 50 | 119 | 4.0 | 9.0 | 0.00 | 0.87 | 0.06 | 99 | 1010.3 |
| 20260903111604 | 50 | 111 | 4.0 | 12.0 | 0.00 | 0.87 | 0.06 | 99 | 1010.3 |
| 20260903110104 | 50 | 102 | 4.0 | 9.0 | 0.00 | 0.87 | 0.06 | 99 | 1010.2 |
| 20260903104604 | 50 | 96 | 3.0 | 9.0 | 0.00 | 0.87 | 0.06 | 99 | 1010.4 |
| 20260903103102 | 50 | 87 | 1.0 | 11.0 | 0.00 | 0.87 | 0.06 | 99 | 1010.3 |
| 20260903101611 | 50 | 108 | 1.0 | 7.0 | 0.01 | 0.87 | 0.06 | 99 | 1010.1 |
| 20260903100104 | 51 | 0 | 2.0 | 8.0 | 0.01 | 0.87 | 0.06 | 99 | 1010.1 |
| 20260903094607 | 51 | 102 | 1.0 | 7.0 | 0.01 | 0.87 | 0.06 | 99 | 1010.1 |
| 20260903093114 | 51 | 0 | 0.0 | 8.0 | 0.01 | 0.87 | 0.06 | 99 | 1010.0 |
| 20260903091602 | 51 | 109 | 1.0 | 8.0 | 0.00 | 0.86 | 0.05 | 99 | 1010.0 |
| 20260903084601 | 51 | 105 | 2.0 | 8.0 | 0.02 | 0.86 | 0.05 | 99 | 1010.1 |
| 20260903083059 | 51 | 102 | 1.0 | 11.0 | 0.03 | 0.86 | 0.05 | 99 | 1010.2 |
| 20260903081601 | 51 | 107 | 3.0 | 8.0 | 0.03 | 0.86 | 0.05 | 99 | 1010.3 |
| 20260903080107 | 51 | 107 | 4.0 | 13.0 | 0.04 | 0.85 | 0.04 | 98 | 1010.3 |
| 20260903074601 | 51 | 142 | 3.0 | 11.0 | 0.04 | 0.84 | 0.03 | 98 | 1010.5 |
| 20260903073100 | 52 | 114 | 4.0 | 12.0 | 0.03 | 0.83 | 0.02 | 99 | 1010.3 |
| 20260903071611 | 52 | 0 | 1.0 | 7.0 | 0.03 | 0.83 | 0.02 | 99 | 1010.4 |
| 20260903070107 | 52 | 0 | 1.0 | 8.0 | 0.01 | 0.81 | 0.00 | 99 | 1010.3 |
| 20260903064600 | 52 | 0 | 1.0 | 7.0 | 0.00 | 0.80 | 0.80 | 99 | 1010.2 |
| 20260903063127 | 52 | 106 | 0.0 | 8.0 | 0.00 | 0.80 | 0.80 | 98 | 1010.0 |
| 20260903061608 | 52 | 105 | 0.0 | 7.0 | 0.00 | 0.80 | 0.80 | 99 | 1010.0 |
| 20260903060117 | 52 | 0 | 0.0 | 6.0 | 0.00 | 0.80 | 0.80 | 99 | 1010.1 |
| 20260903054609 | 52 | 0 | 0.0 | 6.0 | 0.00 | 0.80 | 0.80 | 98 | 1010.3 |
| 20260903053105 | 52 | 0 | 0.0 | 7.0 | 0.00 | 0.80 | 0.80 | 98 | 1010.1 |
| 20260903051602 | 52 | 0 | 0.0 | 9.0 | 0.00 | 0.80 | 0.80 | 99 | 1010.1 |
| 20260903050128 | 52 | 111 | 2.0 | 8.0 | 0.00 | 0.80 | 0.80 | 98 | 1010.0 |
| 20260903044558 | 53 | 0 | 2.0 | 10.0 | 0.02 | 0.80 | 0.80 | 98 | 1009.9 |
| 20260903043059 | 53 | 0 | 1.0 | 7.0 | 0.04 | 0.80 | 0.80 | 98 | 1009.8 |
| 20260903041603 | 53 | 105 | 2.0 | 9.0 | 0.04 | 0.80 | 0.80 | 98 | 1009.7 |
| 20260903040104 | 53 | 111 | 1.0 | 11.0 | 0.03 | 0.79 | 0.79 | 98 | 1009.7 |
| 20260903034603 | 53 | 0 | 0.0 | 7.0 | 0.01 | 0.77 | 0.77 | 98 | 1009.6 |
| 20260903033103 | 54 | 114 | 0.0 | 6.0 | 0.00 | 0.76 | 0.76 | 98 | 1009.5 |
| 20260903031601 | 54 | 111 | 0.0 | 6.0 | 0.00 | 0.76 | 0.76 | 98 | 1009.3 |
| 20260903030100 | 54 | 108 | 0.0 | 7.0 | 0.00 | 0.76 | 0.76 | 98 | 1009.0 |
| 20260903024600 | 54 | 109 | 1.0 | 9.0 | 0.00 | 0.76 | 0.76 | 98 | 1008.9 |
| 20260903023124 | 54 | 0 | 0.0 | 10.0 | 0.01 | 0.76 | 0.76 | 98 | 1008.9 |
| 20260903021607 | 54 | 0 | 0.0 | 8.0 | 0.03 | 0.76 | 0.76 | 98 | 1008.8 |
| 20260903020101 | 55 | 0 | 2.0 | 8.0 | 0.04 | 0.76 | 0.76 | 97 | 1008.7 |
| 20260903014612 | 55 | 0 | 2.0 | 8.0 | 0.07 | 0.76 | 0.76 | 98 | 1008.6 |
| 20260903013101 | 55 | 0 | 0.0 | 4.0 | 0.12 | 0.75 | 0.75 | 97 | 1008.5 |
| 20260903011611 | 55 | 178 | 1.0 | 6.0 | 0.23 | 0.73 | 0.73 | 97 | 1008.2 |
| 20260903010059 | 55 | 0 | 1.0 | 6.0 | 0.26 | 0.72 | 0.72 | 97 | 1008.1 |
| 20260903004601 | 56 | 0 | 1.0 | 5.0 | 0.23 | 0.69 | 0.69 | 97 | 1008.0 |
| 20260903003103 | 56 | 0 | 2.0 | 6.0 | 0.18 | 0.63 | 0.63 | 97 | 1007.9 |
| 20260903001600 | 56 | 0 | 0.0 | 3.0 | 0.05 | 0.50 | 0.50 | 97 | 1007.6 |
| 20260903000107 | 56 | 0 | 0.0 | 2.0 | 0.01 | 0.46 | 0.46 | 97 | 1007.6 |
| 20260902234559 | 57 | 0 | 0.0 | 1.0 | 0.02 | 0.46 | 0.46 | 97 | 1007.6 |
| 20260902233102 | 56 | 0 | 0.0 | 1.0 | 0.01 | 0.45 | 0.45 | 97 | 1007.6 |
| 20260902231609 | 57 | 0 | 0.0 | 4.0 | 0.02 | 0.45 | 0.45 | 97 | 1007.6 |
| 20260902230104 | 57 | 0 | 0.0 | 5.0 | 0.02 | 0.45 | 0.45 | 97 | 1007.3 |
| 20260902224602 | 57 | 0 | 0.0 | 3.0 | 0.02 | 0.44 | 0.44 | 97 | 1007.6 |
| 20260902223109 | 57 | 0 | 0.0 | 8.0 | 0.02 | 0.44 | 0.44 | 97 | 1007.5 |
| 20260902221602 | 57 | 0 | 0.0 | 1.0 | 0.02 | 0.43 | 0.43 | 98 | 1007.6 |
| 20260902214601 | 57 | 0 | 0.0 | 2.0 | 0.06 | 0.42 | 0.42 | 98 | 1007.4 |